Regional Weather Roundup
Issued by NWS

Home | Current Version | Previous Version | Text Only | Print | Product List | Glossary Off
Versions: 1 2 3 4 5 6 7 8 9 10 11 12 13 14 15 16 17 18 19 20 21 22 23 24 25 26 27 28 29 30 31 32 33 34 35 36 37 38 39 40 41 42 43 44 45 46 47 48 49 50

628
ASUS43 KLMK 072310
RWRKY
KENTUCKY REGIONAL WEATHER ROUNDUP
NATIONAL WEATHER SERVICE LOUISVILLE KY
600 PM EST SUN FEB 07 2016

NOTE "FAIR" INDICATES FEW OR NO CLOUDS BELOW 12,000 FEET
WITH NO SIGNIFICANT WEATHER AND/OR OBSTRUCTIONS TO VISIBILITY.

KYZ001>023-026-027-061>063-070>075-080000-
WESTERN AND SOUTH CENTRAL KENTUCKY

CITY           SKY/WX    TMP DP  RH WIND       PRES   REMARKS
PADUCAH        MOCLDY    53  29  39 SW13      29.92F
HENDERSON      CLEAR     52  27  37 SW12      29.90F
OWENSBORO      PTCLDY    51  30  44 SW12      29.92R
HOPKINSVILLE   PTCLDY    52  23  32 SW14      29.93F
BOWLING GREEN  CLEAR     52  21  29 SW10      29.95F
GLASGOW        PTCLDY    51  20  29 SW8       29.94F
$$

KYZ024-025-028>034-038-045-046-053-080000-
NORTH CENTRAL KENTUCKY

CITY           SKY/WX    TMP DP  RH WIND       PRES   REMARKS
LOUISVILLE/SDF PTCLDY    53  19  26 SW8G20    29.89F
LOUISVILLE/LOU CLEAR     52  20  28 S7        29.90F
FORT KNOX      CLEAR     50  22  33 S10       29.89F
$$

KYZ035>037-039>044-047>052-055>060-089>105-080000-
NORTHEAST KENTUCKY

CITY           SKY/WX    TMP DP  RH WIND       PRES   REMARKS
LEXINGTON      CLEAR     47  21  35 SW12      29.91F
COVINGTON      CLOUDY    49  21  33 S8        29.87
FRANKFORT      CLEAR     49  20  31 S10       29.90F
$$

KYZ054-064>069-076>088-106>120-080000-
SOUTHEAST KENTUCKY

CITY           SKY/WX    TMP DP  RH WIND       PRES   REMARKS
JACKSON        CLEAR     48  20  32 CALM      29.93F
LONDON         CLEAR     48  21  34 W5        29.94F
SOMERSET       CLEAR     45  21  39 W6        29.96F
MIDDLESBORO    CLEAR     50  21  32 CALM      29.95F
MONTICELLO     CLEAR     47  23  38 W15       29.97F
$$





USA.gov is the U.S. government's official web portal to all federal, state and local government web resources and services.